Weather Roundup
Issued by NWS Springfield, MO

Home | Current Version | Previous Version | Text Only | Print | Product List | Glossary On
Versions: 1 2 3 4 5 6 7 8 9 10 11 12 13 14 15 16 17 18 19 20 21 22 23 24 25 26 27 28 29 30 31 32 33 34 35 36 37 38 39 40 41 42 43 44 45 46 47 48 49 50
000
NZUS99 KSGF 180057
HRRSGF

HOURLY WEATHER
NATIONAL WEATHER SERVICE SPRINGFIELD MO
700 PM CST TUE JAN 17 2017

......SGF CWA......

CITY           SKY/WX    TMP DP  RH WIND       PRES   REMARKS
SPRINGFIELD    CLOUDY    38  35  89 W8        30.17R WCI  32
JOPLIN         CLOUDY    39  36  89 NW3       30.20R
WEST PLAINS    CLOUDY    40  37  89 W6        30.18R
ROLLA          CLOUDY    37  35  92 W9        30.14R WCI  30
BRANSON        CLOUDY    39  36  87 W5        30.19R

......SURROUNDING SGF CWA......

CITY           SKY/WX    TMP DP  RH WIND       PRES   REMARKS
CHANUTE        CLEAR     38  34  85 S10       30.18R WCI  31
PARSONS        CLEAR     37  34  89 CALM      30.19R
COFFEYVILLE    CLEAR     38  34  85 E3        30.18S
EMPORIA        CLEAR     39  30  70 SW5       30.13R
HARRISON AR    CLOUDY    40  37  89 CALM      30.18R

......KANSAS AND MISSOURI......

CITY           SKY/WX    TMP DP  RH WIND       PRES   REMARKS
KANSAS CTY INT CLEAR     34  29  82 CALM      30.14R
SEDALIA        CLOUDY    39  36  89 W5        30.18R
ST JOSEPH      CLEAR     30  30 100 S5        30.14S WCI  25
ST LOUIS       CLOUDY    42  35  76 W12       30.15R
WICHITA        CLEAR     37  31  78 S5        30.15R WCI  33
TOPEKA         CLEAR     35  30  82 CALM      30.14R
OLATHE         CLEAR     32  32 100 CALM      30.15R

......TENNESSEE......

CITY           SKY/WX    TMP DP  RH WIND       PRES   REMARKS
MEMPHIS        NOT AVBL
NASHVILLE      CLOUDY    57  44  62 W13G21    30.12R

......ARKANSAS.......

CITY           SKY/WX    TMP DP  RH WIND       PRES   REMARKS
FAYETTEVILLE   CLOUDY    40  37  89 CALM      30.18R
FT SMITH       MOCLDY    44  37  76 CALM      30.19F
LITTLE ROCK    CLOUDY    49  43  80 CALM      30.18R

......OKLAHOMA.......

CITY           SKY/WX    TMP DP  RH WIND       PRES   REMARKS
TULSA          CLOUDY    44  37  76 E3        30.18F
PONCA CITY     CLOUDY    44  32  62 SE3       30.14F
MCALESTER      CLOUDY    44  36  73 CALM      30.18R
OKLAHOMA CITY  CLOUDY    49  31  49 CALM      30.15R

......IOWA............

CITY           SKY/WX    TMP DP  RH WIND       PRES   REMARKS
DES MOINES     NOT AVBL
QUAD CITIES    CLOUDY    35  33  92 W10       30.04R FOG     WCI  27

......ILLINOIS........

CITY           SKY/WX    TMP DP  RH WIND       PRES   REMARKS
QUINCY         NOT AVBL
CHICAGO        CLOUDY    35  34  96 W14       29.96R WCI  26



USA.gov is the U.S. government's official web portal to all federal, state and local government web resources and services.